Location: Unspecified
(0.0000°N, 0.0000°E)
Time: 05:28:45
(UTC+00:00)

Tiangong 2 - Pass Details

Date: 17 May 2019
Orbit: 379 x 387 km, 42.8° (Epoch: 22 May)

Event Time Altitude Azimuth Distance (km) Brightness Sun altitude
Rises 18:58:19 0° 251° (WSW) 2,239 5.8 -14.6°
Reaches altitude 10° 19:00:53 10° 273° (W) 1,383 5.1 -15.2°
Maximum altitude 19:02:58 17° 315° (NW) 1,059 4.2 -15.7°
Drops below altitude 10° 19:05:03 10° 357° (N) 1,377 4.1 -16.2°
Sets 19:07:36 0° 20° (NNE) 2,223 4.9 -16.8°
